DAL68 RCTP-KSEA

Flight info

Callsign DAL68
Flight time N/A
Altitude 33000
Route ROBIN1C ROBIN R583 BORDO Z29 GAKIA Y293 YULIA Y57 DOMBI/N0476F350 Y57 POROT Y809 IDLAN Y812 ADNAP OTR5 KALNA DCT 45N160E 50N170E/N0477F370 DCT EYETI DCT RADIC DCT 55N160W 56N150W DCT PHINK/N0456F390 DCT KATCH DCT YZT Q902 VIXOR MARNR8
Aircraft A339/H-SADE1E2E3GHIJ3J5M1P2RWXY/LB2D1

Departure

Time 2026-05-07 07:05
Airport Taiwan Taoyuan International Airport (RCTP)

Arrival

Time N/A
Airport Seattle–Tacoma International Airport (KSEA)
Time Latitude Longitude Altitude Speed Heading
2026-05-07 06:59 25.07863 121.22806 124 ft 0 kts 230°
2026-05-07 07:00 25.07852 121.22792 124 ft 4 kts 228°
2026-05-07 07:00 25.07824 121.22759 124 ft 7 kts 228°
2026-05-07 07:00 25.07783 121.22706 124 ft 10 kts 229°
2026-05-07 07:01 25.07730 121.22639 124 ft 12 kts 229°
2026-05-07 07:01 25.07666 121.22557 124 ft 14 kts 229°
2026-05-07 07:01 25.07595 121.22465 124 ft 16 kts 229°
2026-05-07 07:01 25.07515 121.22365 124 ft 18 kts 229°
2026-05-07 07:02 25.07430 121.22256 124 ft 18 kts 229°
2026-05-07 07:02 25.07347 121.22148 124 ft 18 kts 229°
2026-05-07 07:02 25.07265 121.22046 124 ft 17 kts 229°
2026-05-07 07:02 25.07210 121.21966 124 ft 12 kts 248°
2026-05-07 07:03 25.07232 121.21880 124 ft 12 kts 314°
2026-05-07 07:03 25.07297 121.21813 124 ft 12 kts 317°
2026-05-07 07:03 25.07360 121.21749 124 ft 9 kts 317°
2026-05-07 07:03 25.07391 121.21738 124 ft 4 kts 15°
2026-05-07 07:04 25.07417 121.21761 124 ft 0 kts 50°
2026-05-07 07:04 25.07420 121.21765 124 ft 6 kts 50°
2026-05-07 07:04 25.07601 121.21994 124 ft 71 kts 49°
2026-05-07 07:04 25.08052 121.22568 124 ft 126 kts 49°
2026-05-07 07:05 25.08747 121.23451 124 ft 174 kts 50°
2026-05-07 07:05 25.09588 121.24544 408 ft 192 kts 49°
2026-05-07 07:05 25.10456 121.25661 958 ft 194 kts 48°
2026-05-07 07:05 25.11345 121.26789 1546 ft 196 kts 49°
2026-05-07 07:06 25.12243 121.27930 2017 ft 197 kts 49°
2026-05-07 07:06 25.13177 121.29114 2243 ft 209 kts 49°
2026-05-07 07:06 25.14152 121.30370 2463 ft 221 kts 50°
2026-05-07 07:06 25.15169 121.31690 2690 ft 234 kts 50°
2026-05-07 07:07 25.16260 121.33110 2926 ft 247 kts 50°
2026-05-07 07:07 25.17399 121.34591 3158 ft 259 kts 50°
2026-05-07 07:07 25.18593 121.36142 3401 ft 273 kts 50°
2026-05-07 07:07 25.19849 121.37775 3812 ft 279 kts 50°
2026-05-07 07:08 25.21090 121.39391 4336 ft 280 kts 50°
2026-05-07 07:08 25.22348 121.41029 4822 ft 283 kts 51°
2026-05-07 07:08 25.23634 121.42705 5322 ft 285 kts 50°
2026-05-07 07:08 25.24921 121.44383 5823 ft 288 kts 50°
2026-05-07 07:09 25.26214 121.46071 6277 ft 291 kts 50°
2026-05-07 07:09 25.27526 121.47778 6793 ft 294 kts 50°
2026-05-07 07:09 25.28753 121.49599 7261 ft 297 kts 62°
2026-05-07 07:09 25.29511 121.51692 7729 ft 297 kts 78°
2026-05-07 07:10 25.29747 121.53963 8220 ft 298 kts 92°
2026-05-07 07:10 25.29718 121.56243 8630 ft 301 kts 89°
2026-05-07 07:10 25.29958 121.58544 9044 ft 306 kts 81°
2026-05-07 07:10 25.30349 121.60877 9464 ft 309 kts 79°
2026-05-07 07:11 25.30776 121.63191 9873 ft 312 kts 78°
2026-05-07 07:11 25.31230 121.65560 10219 ft 318 kts 78°
2026-05-07 07:11 25.31697 121.67976 10421 ft 328 kts 78°
2026-05-07 07:11 25.32184 121.70475 10626 ft 339 kts 78°
2026-05-07 07:12 25.32688 121.73043 10822 ft 349 kts 78°
2026-05-07 07:12 25.33211 121.75726 11020 ft 360 kts 78°
2026-05-07 07:12 25.33741 121.78452 11221 ft 370 kts 78°
2026-05-07 07:12 25.34290 121.81280 11404 ft 380 kts 78°
2026-05-07 07:13 25.34848 121.84153 11587 ft 390 kts 77°
2026-05-07 07:13 25.35423 121.87106 11797 ft 398 kts 77°
2026-05-07 07:13 25.36009 121.90118 12144 ft 402 kts 77°
2026-05-07 07:13 25.36593 121.93136 12548 ft 404 kts 77°
2026-05-07 07:14 25.37179 121.96177 12931 ft 406 kts 77°
2026-05-07 07:14 25.37765 121.99214 13292 ft 410 kts 77°
2026-05-07 07:14 25.38365 122.02322 13674 ft 412 kts 77°
2026-05-07 07:14 25.38958 122.05393 14033 ft 414 kts 77°
2026-05-07 07:15 25.39560 122.08513 14394 ft 416 kts 77°
2026-05-07 07:15 25.40166 122.11655 14746 ft 419 kts 77°
2026-05-07 07:15 25.40774 122.14829 15105 ft 422 kts 77°
2026-05-07 07:15 25.41379 122.17976 15474 ft 424 kts 77°
2026-05-07 07:16 25.42112 122.21140 15871 ft 426 kts 73°
2026-05-07 07:16 25.43026 122.24270 16253 ft 428 kts 70°
2026-05-07 07:16 25.44030 122.27382 16605 ft 431 kts 69°
2026-05-07 07:16 25.45057 122.30516 16964 ft 434 kts 69°
2026-05-07 07:17 25.46070 122.33611 17336 ft 435 kts 70°
2026-05-07 07:17 25.47094 122.36763 17680 ft 438 kts 69°
2026-05-07 07:17 25.48127 122.39949 18016 ft 441 kts 70°
2026-05-07 07:17 25.49163 122.43157 18379 ft 443 kts 70°
2026-05-07 07:18 25.50204 122.46377 18755 ft 445 kts 70°
2026-05-07 07:18 25.51244 122.49560 19099 ft 447 kts 69°
2026-05-07 07:18 25.52346 122.52795 19462 ft 449 kts 68°
2026-05-07 07:18 25.53463 122.56035 19796 ft 452 kts 68°
2026-05-07 07:19 25.54591 122.59306 20100 ft 455 kts 68°
2026-05-07 07:19 25.55704 122.62545 20428 ft 457 kts 68°
2026-05-07 07:19 25.56837 122.65845 20764 ft 459 kts 69°
2026-05-07 07:19 25.57972 122.69166 21098 ft 460 kts 69°
2026-05-07 07:20 25.59095 122.72453 21396 ft 462 kts 69°
2026-05-07 07:20 25.60239 122.75811 21696 ft 465 kts 69°
2026-05-07 07:20 25.61371 122.79139 21968 ft 467 kts 69°
2026-05-07 07:20 25.62530 122.82544 22252 ft 469 kts 69°
2026-05-07 07:21 25.63672 122.85904 22563 ft 471 kts 69°
2026-05-07 07:21 25.64818 122.89291 22844 ft 473 kts 69°
2026-05-07 07:21 25.65966 122.92705 23079 ft 476 kts 69°
2026-05-07 07:21 25.67132 122.96181 23357 ft 478 kts 69°
2026-05-07 07:22 25.68289 122.99629 23610 ft 481 kts 69°
2026-05-07 07:22 25.69460 123.03114 23816 ft 485 kts 69°
2026-05-07 07:22 25.70633 123.06599 24056 ft 487 kts 68°
2026-05-07 07:22 25.71814 123.10111 24339 ft 489 kts 68°
2026-05-07 07:23 25.72998 123.13630 24613 ft 491 kts 68°
2026-05-07 07:23 25.74203 123.17214 24885 ft 493 kts 68°
2026-05-07 07:23 25.75395 123.20771 25141 ft 495 kts 68°
2026-05-07 07:23 25.76587 123.24327 25402 ft 497 kts 68°
2026-05-07 07:24 25.77799 123.27945 25650 ft 499 kts 68°
2026-05-07 07:24 25.78999 123.31533 25877 ft 501 kts 68°
2026-05-07 07:24 25.80205 123.35146 26106 ft 503 kts 68°
2026-05-07 07:24 25.81418 123.38779 26343 ft 505 kts 68°
2026-05-07 07:25 25.83867 123.46127 26828 ft 509 kts 68°
2026-05-07 07:25 25.85083 123.49781 27075 ft 510 kts 68°
2026-05-07 07:25 25.86323 123.53510 27269 ft 513 kts 68°
2026-05-07 07:26 25.87549 123.57207 27502 ft 514 kts 68°
2026-05-07 07:26 25.88779 123.60910 27792 ft 514 kts 68°
2026-05-07 07:26 25.90006 123.64613 28153 ft 513 kts 68°
2026-05-07 07:26 25.91230 123.68315 28483 ft 512 kts 68°
2026-05-07 07:27 25.92461 123.72043 28798 ft 511 kts 68°
2026-05-07 07:27 25.93675 123.75722 29094 ft 511 kts 68°
2026-05-07 07:27 25.94889 123.79400 29371 ft 511 kts 68°
2026-05-07 07:27 25.96104 123.83089 29675 ft 510 kts 68°
2026-05-07 07:28 25.97321 123.86781 29981 ft 509 kts 68°
2026-05-07 07:28 25.98542 123.90496 30254 ft 508 kts 68°
2026-05-07 07:28 25.99739 123.94135 30549 ft 508 kts 67°
2026-05-07 07:28 26.01053 123.97772 30847 ft 505 kts 64°
2026-05-07 07:29 26.02543 124.01307 31166 ft 503 kts 60°
2026-05-07 07:29 26.04202 124.04720 31451 ft 500 kts 57°
2026-05-07 07:29 26.05981 124.08032 31681 ft 500 kts 56°
2026-05-07 07:29 26.07774 124.11311 31851 ft 502 kts 55°
2026-05-07 07:30 26.09598 124.14637 32062 ft 502 kts 55°
2026-05-07 07:30 26.11396 124.17919 32283 ft 503 kts 55°
2026-05-07 07:30 26.13222 124.21268 32518 ft 502 kts 56°
2026-05-07 07:30 26.15012 124.24560 32741 ft 503 kts 56°
2026-05-07 07:31 26.16835 124.27921 32892 ft 504 kts 55°
2026-05-07 07:31 26.20457 124.34601 32901 ft 504 kts 55°
2026-05-07 07:32 26.24070 124.41283 32905 ft 506 kts 55°
2026-05-07 07:32 26.27691 124.47989 32909 ft 505 kts 56°
2026-05-07 07:33 26.31281 124.54649 32915 ft 505 kts 55°
2026-05-07 07:33 26.34892 124.61357 32917 ft 505 kts 55°
2026-05-07 07:34 26.38494 124.68055 32918 ft 505 kts 56°
2026-05-07 07:34 26.42111 124.74801 32923 ft 505 kts 56°
2026-05-07 07:35 26.45707 124.81511 32928 ft 506 kts 56°
2026-05-07 07:35 26.49315 124.88257 32930 ft 505 kts 56°
2026-05-07 07:36 26.52904 124.94975 32927 ft 506 kts 56°
2026-05-07 07:36 26.56485 125.01685 32926 ft 505 kts 56°
2026-05-07 07:37 26.60085 125.08443 32925 ft 506 kts 56°
2026-05-07 07:37 26.63674 125.15186 32927 ft 507 kts 56°
2026-05-07 07:38 26.67257 125.21935 32928 ft 507 kts 56°
2026-05-07 07:38 26.70842 125.28696 32929 ft 507 kts 56°
2026-05-07 07:39 26.74448 125.35507 32931 ft 509 kts 56°
2026-05-07 07:39 26.78038 125.42297 32930 ft 509 kts 56°
2026-05-07 07:40 26.81650 125.49140 32932 ft 511 kts 56°
2026-05-07 07:40 26.85225 125.55928 32933 ft 510 kts 56°
2026-05-07 07:41 26.88813 125.62750 32934 ft 510 kts 56°
2026-05-07 07:41 26.92419 125.69607 32932 ft 511 kts 57°
2026-05-07 07:42 26.96005 125.76446 32934 ft 511 kts 57°
2026-05-07 07:42 26.99610 125.83332 32934 ft 511 kts 57°
2026-05-07 07:43 27.03180 125.90160 32933 ft 510 kts 57°
2026-05-07 07:43 27.06797 125.97054 32933 ft 512 kts 56°
2026-05-07 07:44 27.10399 126.03919 32933 ft 513 kts 56°
2026-05-07 07:44 27.14008 126.10815 32936 ft 513 kts 56°
2026-05-07 07:45 27.17618 126.17725 32936 ft 512 kts 56°
2026-05-07 07:45 27.21216 126.24620 32935 ft 512 kts 56°
2026-05-07 07:46 27.24801 126.31500 32935 ft 513 kts 57°
2026-05-07 07:46 27.28390 126.38409 32935 ft 514 kts 57°
2026-05-07 07:47 27.32002 126.45371 32931 ft 514 kts 56°
2026-05-07 07:47 27.35576 126.52265 32933 ft 513 kts 56°
2026-05-07 07:48 27.39177 126.59222 32933 ft 513 kts 56°
2026-05-07 07:48 27.42734 126.66107 32939 ft 513 kts 57°
2026-05-07 07:49 27.46331 126.73077 32941 ft 515 kts 57°
2026-05-07 07:49 27.49917 126.80042 32949 ft 515 kts 57°
2026-05-07 07:50 27.53477 126.86968 32949 ft 514 kts 57°
2026-05-07 07:50 27.57060 126.93950 32955 ft 514 kts 57°
2026-05-07 07:51 27.60640 127.00937 32951 ft 515 kts 57°
2026-05-07 07:51 27.64188 127.07870 32941 ft 514 kts 57°
2026-05-07 07:52 27.67754 127.14851 32941 ft 514 kts 57°
2026-05-07 07:52 27.71327 127.21855 32938 ft 515 kts 57°
2026-05-07 07:53 27.74882 127.28839 32944 ft 515 kts 56°
2026-05-07 07:53 27.78441 127.35843 32942 ft 516 kts 56°
2026-05-07 07:54 27.82000 127.42863 32941 ft 516 kts 57°
2026-05-07 07:54 27.85420 127.49931 32937 ft 516 kts 58°
2026-05-07 07:55 27.88817 127.57059 32940 ft 516 kts 58°
2026-05-07 07:55 27.92214 127.64181 32937 ft 516 kts 58°
2026-05-07 07:56 27.95632 127.71340 32937 ft 516 kts 58°
2026-05-07 07:56 27.99022 127.78449 32937 ft 515 kts 58°
2026-05-07 07:57 28.02411 127.85558 32936 ft 516 kts 58°
2026-05-07 07:57 28.05802 127.92692 32922 ft 516 kts 58°
2026-05-07 07:58 28.09197 127.99838 32919 ft 517 kts 58°
2026-05-07 07:58 28.12597 128.07019 32933 ft 518 kts 58°
2026-05-07 07:59 28.16004 128.14220 32936 ft 518 kts 59°
2026-05-07 07:59 28.19383 128.21374 32940 ft 519 kts 59°
2026-05-07 08:00 28.22786 128.28597 32938 ft 518 kts 58°
2026-05-07 08:00 28.26158 128.35759 32939 ft 518 kts 58°
2026-05-07 08:01 28.29553 128.42982 32938 ft 518 kts 58°
2026-05-07 08:01 28.32934 128.50191 32937 ft 519 kts 59°
2026-05-07 08:02 28.36296 128.57375 32936 ft 519 kts 58°
2026-05-07 08:02 28.39690 128.64642 32936 ft 519 kts 58°
2026-05-07 08:03 28.43049 128.71838 32937 ft 519 kts 59°
2026-05-07 08:03 28.46421 128.79080 32936 ft 519 kts 59°
2026-05-07 08:04 28.49789 128.86325 32936 ft 519 kts 59°
2026-05-07 08:04 28.53152 128.93578 32936 ft 520 kts 59°
2026-05-07 08:05 28.56507 129.00816 32938 ft 520 kts 59°
2026-05-07 08:05 28.59872 129.08095 32937 ft 520 kts 59°
2026-05-07 08:06 28.63218 129.15350 32936 ft 520 kts 59°
2026-05-07 08:06 28.66575 129.22633 32936 ft 520 kts 59°
2026-05-07 08:07 28.69928 129.29925 32934 ft 521 kts 59°
2026-05-07 08:07 28.73270 129.37204 32939 ft 520 kts 59°
2026-05-07 08:08 28.76591 129.44458 32937 ft 520 kts 59°
2026-05-07 08:08 28.79924 129.51743 32938 ft 521 kts 59°
2026-05-07 08:09 28.83266 129.59062 32937 ft 519 kts 59°
2026-05-07 08:09 28.86579 129.66332 32934 ft 519 kts 59°
2026-05-07 08:10 28.89910 129.73653 32938 ft 518 kts 59°
2026-05-07 08:10 28.93224 129.80949 32936 ft 519 kts 59°
2026-05-07 08:11 28.96522 129.88228 32938 ft 520 kts 59°
2026-05-07 08:11 28.99838 129.95560 32938 ft 520 kts 59°
2026-05-07 08:12 29.03153 130.02898 32936 ft 519 kts 59°
2026-05-07 08:12 29.06434 130.10181 32935 ft 518 kts 59°
2026-05-07 08:13 29.09739 130.17525 32935 ft 519 kts 59°
2026-05-07 08:13 29.13015 130.24820 32930 ft 518 kts 59°
2026-05-07 08:14 29.16291 130.32130 32929 ft 518 kts 59°
2026-05-07 08:14 29.19573 130.39464 32929 ft 518 kts 59°
2026-05-07 08:15 29.22837 130.46771 32926 ft 518 kts 59°
2026-05-07 08:15 29.26109 130.54114 32922 ft 519 kts 59°
2026-05-07 08:16 29.29382 130.61472 32921 ft 518 kts 59°
2026-05-07 08:16 29.32642 130.68810 32916 ft 519 kts 60°
2026-05-07 08:17 29.35887 130.76132 32924 ft 519 kts 59°
2026-05-07 08:17 29.39143 130.83491 32921 ft 519 kts 59°
2026-05-07 08:18 29.42416 130.90903 32918 ft 519 kts 59°
2026-05-07 08:18 29.45654 130.98248 32920 ft 519 kts 59°
2026-05-07 08:19 29.48884 131.05589 32914 ft 517 kts 60°
2026-05-07 08:19 29.52125 131.12968 32913 ft 517 kts 60°
2026-05-07 08:20 29.55335 131.20296 32916 ft 517 kts 59°
2026-05-07 08:20 29.58562 131.27673 32919 ft 516 kts 59°
2026-05-07 08:21 29.61764 131.35001 32922 ft 515 kts 60°
2026-05-07 08:21 29.64958 131.42334 32928 ft 515 kts 60°
2026-05-07 08:22 29.68163 131.49699 32926 ft 514 kts 60°
2026-05-07 08:22 29.71356 131.57053 32926 ft 515 kts 60°
2026-05-07 08:23 29.74524 131.64366 32928 ft 513 kts 60°
2026-05-07 08:23 29.77708 131.71729 32924 ft 513 kts 60°
2026-05-07 08:24 29.80902 131.78999 32925 ft 511 kts 58°
2026-05-07 08:24 29.84633 131.85931 32921 ft 507 kts 52°
2026-05-07 08:25 29.88658 131.92583 32922 ft 506 kts 51°
2026-05-07 08:25 29.92690 131.99220 32918 ft 505 kts 51°
2026-05-07 08:26 29.98690 132.09163 32918 ft 506 kts 51°
2026-05-07 08:26 30.02693 132.15825 32915 ft 506 kts 51°
2026-05-07 08:27 30.06704 132.22508 32913 ft 506 kts 51°
2026-05-07 08:27 30.10696 132.29173 32914 ft 506 kts 51°
2026-05-07 08:28 30.14709 132.35884 32914 ft 507 kts 51°
2026-05-07 08:28 30.18684 132.42540 32914 ft 508 kts 51°
2026-05-07 08:29 30.22694 132.49269 32913 ft 508 kts 51°
2026-05-07 08:29 30.26691 132.55988 32914 ft 508 kts 51°
2026-05-07 08:30 30.30669 132.62685 32914 ft 507 kts 51°
2026-05-07 08:30 30.34668 132.69423 32911 ft 508 kts 52°
2026-05-07 08:31 30.38635 132.76128 32909 ft 508 kts 52°
2026-05-07 08:31 30.42635 132.82892 32909 ft 509 kts 52°
2026-05-07 08:32 30.46625 132.89655 32906 ft 509 kts 52°
2026-05-07 08:32 30.50607 132.96416 32903 ft 510 kts 52°
2026-05-07 08:33 30.54595 133.03201 32903 ft 511 kts 52°
2026-05-07 08:33 30.58576 133.09981 32901 ft 510 kts 52°
2026-05-07 08:34 30.62555 133.16768 32903 ft 510 kts 52°
2026-05-07 08:34 30.66523 133.23550 32902 ft 509 kts 52°
2026-05-07 08:35 30.70504 133.30368 32902 ft 509 kts 53°
2026-05-07 08:35 30.74446 133.37129 32904 ft 508 kts 53°
2026-05-07 08:36 30.78414 133.43947 32905 ft 507 kts 53°
2026-05-07 08:36 30.82351 133.50723 32905 ft 507 kts 53°
2026-05-07 08:37 30.86280 133.57500 32907 ft 506 kts 53°
2026-05-07 08:37 30.90203 133.64275 32905 ft 506 kts 53°
2026-05-07 08:38 30.94127 133.71060 32904 ft 505 kts 54°
2026-05-07 08:38 30.98019 133.77800 32905 ft 504 kts 54°
2026-05-07 08:39 31.01913 133.84555 32897 ft 502 kts 54°
2026-05-07 08:39 31.05815 133.91334 32894 ft 503 kts 54°
2026-05-07 08:40 31.09709 133.98111 32894 ft 503 kts 54°
2026-05-07 08:40 31.13593 134.04886 32894 ft 502 kts 54°
2026-05-07 08:41 31.17464 134.11653 32896 ft 503 kts 54°
2026-05-07 08:41 31.21321 134.18401 32896 ft 502 kts 54°
2026-05-07 08:42 31.25190 134.25185 32899 ft 502 kts 54°
2026-05-07 08:42 31.29056 134.31972 32900 ft 502 kts 54°
2026-05-07 08:43 31.32912 134.38751 32901 ft 503 kts 54°
2026-05-07 08:43 31.36759 134.45532 32906 ft 502 kts 54°
2026-05-07 08:44 31.40623 134.52356 32916 ft 502 kts 54°
2026-05-07 08:44 31.44474 134.59164 32921 ft 503 kts 54°
2026-05-07 08:45 31.48304 134.65947 32924 ft 503 kts 54°
2026-05-07 08:45 31.52155 134.72783 32928 ft 502 kts 54°
2026-05-07 08:46 31.55995 134.79607 32931 ft 502 kts 54°
2026-05-07 08:46 31.59816 134.86415 32933 ft 502 kts 54°
2026-05-07 08:47 31.63642 134.93242 32933 ft 502 kts 54°
2026-05-07 08:47 31.67452 135.00052 32934 ft 501 kts 54°
2026-05-07 08:48 31.71386 135.06828 32933 ft 500 kts 50°
2026-05-07 08:48 31.75819 135.13071 32930 ft 496 kts 45°
2026-05-07 08:49 31.80442 135.19069 32922 ft 496 kts 45°
2026-05-07 08:49 31.85047 135.25046 32920 ft 495 kts 45°
2026-05-07 08:50 31.89660 135.31061 32922 ft 493 kts 45°
2026-05-07 08:50 31.94215 135.37016 32924 ft 492 kts 45°
2026-05-07 08:51 31.98792 135.43013 32925 ft 491 kts 45°
2026-05-07 08:51 32.03336 135.48978 32928 ft 490 kts 45°
2026-05-07 08:52 32.07864 135.54933 32922 ft 491 kts 45°
2026-05-07 08:52 32.12409 135.60918 32930 ft 490 kts 45°
2026-05-07 08:53 32.16948 135.66904 32926 ft 490 kts 46°
2026-05-07 08:53 32.21470 135.72878 32928 ft 489 kts 46°
2026-05-07 08:54 32.26001 135.78874 32926 ft 489 kts 46°
2026-05-07 08:54 32.30529 135.84872 32924 ft 489 kts 46°
2026-05-07 08:55 32.35032 135.90849 32928 ft 487 kts 46°
2026-05-07 08:55 32.39534 135.96840 32923 ft 488 kts 46°
2026-05-07 08:56 32.43779 136.03079 32925 ft 489 kts 53°
2026-05-07 08:56 32.47522 136.09770 32922 ft 491 kts 56°
2026-05-07 08:57 32.51177 136.16563 32921 ft 492 kts 56°
2026-05-07 08:57 32.54852 136.23398 32921 ft 493 kts 56°
2026-05-07 08:58 32.58543 136.30257 32919 ft 493 kts 56°
2026-05-07 08:58 32.62225 136.37105 32923 ft 495 kts 56°
2026-05-07 08:59 32.65921 136.43988 32919 ft 496 kts 57°
2026-05-07 08:59 32.69607 136.50873 32917 ft 497 kts 56°
2026-05-07 09:00 32.73304 136.57785 32916 ft 499 kts 57°
2026-05-07 09:00 32.77018 136.64743 32918 ft 500 kts 57°
2026-05-07 09:01 32.80739 136.71727 32917 ft 501 kts 58°
2026-05-07 09:01 32.84447 136.78702 32914 ft 500 kts 58°
2026-05-07 09:02 32.88139 136.85654 32918 ft 500 kts 58°
2026-05-07 09:02 32.91857 136.92670 32924 ft 502 kts 58°
2026-05-07 09:03 32.95555 136.99670 32932 ft 503 kts 58°
2026-05-07 09:03 32.99285 137.06740 32935 ft 504 kts 59°
2026-05-07 09:04 33.03010 137.13814 32935 ft 503 kts 59°
2026-05-07 09:04 33.06719 137.20872 32934 ft 504 kts 59°
2026-05-07 09:05 33.10417 137.27924 32934 ft 504 kts 59°
2026-05-07 09:05 33.14143 137.35037 32932 ft 504 kts 59°
2026-05-07 09:06 33.17863 137.42157 32933 ft 504 kts 58°
2026-05-07 09:06 33.21558 137.49231 32934 ft 504 kts 58°
2026-05-07 09:07 33.25261 137.56334 32935 ft 503 kts 59°
2026-05-07 09:07 33.28942 137.63408 32926 ft 503 kts 58°
2026-05-07 09:08 33.32621 137.70500 32914 ft 504 kts 59°
2026-05-07 09:08 33.36304 137.77603 32915 ft 503 kts 59°
2026-05-07 09:09 33.39984 137.84721 32914 ft 502 kts 59°
2026-05-07 09:09 33.43643 137.91817 32914 ft 502 kts 59°
2026-05-07 09:10 33.47305 137.98923 32916 ft 503 kts 59°
2026-05-07 09:10 33.50952 138.06015 32918 ft 502 kts 59°
2026-05-07 09:11 33.54617 138.13159 33160 ft 504 kts 59°
2026-05-07 09:11 33.56431 138.16695 33477 ft 503 kts 59°
2026-05-07 09:11 33.58259 138.20264 33783 ft 501 kts 59°
2026-05-07 09:12 33.60070 138.23801 34054 ft 501 kts 59°
2026-05-07 09:12 33.61898 138.27377 34324 ft 500 kts 59°
2026-05-07 09:12 33.63711 138.30930 34578 ft 500 kts 59°
2026-05-07 09:12 33.65517 138.34470 34811 ft 500 kts 59°
2026-05-07 09:13 33.69125 138.41553 34913 ft 500 kts 59°
2026-05-07 09:13 33.72746 138.48682 34915 ft 501 kts 60°
2026-05-07 09:14 33.76365 138.55815 34913 ft 500 kts 60°
2026-05-07 09:14 33.79959 138.62909 34915 ft 501 kts 60°
2026-05-07 09:15 33.83572 138.70058 34916 ft 502 kts 60°
2026-05-07 09:15 33.87191 138.77235 34915 ft 502 kts 60°
2026-05-07 09:16 33.90790 138.84387 34915 ft 504 kts 60°
2026-05-07 09:16 33.94416 138.91599 34913 ft 505 kts 60°
2026-05-07 09:17 33.98051 138.98850 34913 ft 505 kts 60°
2026-05-07 09:17 34.01655 139.06044 34912 ft 504 kts 60°
2026-05-07 09:18 34.05276 139.13297 34909 ft 504 kts 60°
2026-05-07 09:18 34.08891 139.20552 34909 ft 506 kts 60°
2026-05-07 09:19 34.12493 139.27795 34910 ft 505 kts 60°
2026-05-07 09:19 34.16117 139.35095 34910 ft 506 kts 60°
2026-05-07 09:20 34.19735 139.42401 34909 ft 506 kts 60°
2026-05-07 09:20 34.23331 139.49674 34912 ft 507 kts 60°
2026-05-07 09:21 34.26945 139.56992 34910 ft 507 kts 60°
2026-05-07 09:21 34.30528 139.64264 34910 ft 507 kts 60°
2026-05-07 09:22 34.34125 139.71584 34910 ft 507 kts 61°
2026-05-07 09:22 34.37718 139.78908 34908 ft 508 kts 61°
2026-05-07 09:23 34.41300 139.86227 34908 ft 507 kts 61°
2026-05-07 09:23 34.44895 139.93585 34908 ft 508 kts 61°
2026-05-07 09:24 34.48466 140.00914 34916 ft 509 kts 61°
2026-05-07 09:24 34.52065 140.08310 34918 ft 509 kts 61°
2026-05-07 09:25 34.55647 140.15694 34918 ft 509 kts 61°
2026-05-07 09:25 34.58620 140.21831 34917 ft 509 kts 61°
2026-05-07 09:26 34.62812 140.30504 34916 ft 510 kts 61°
2026-05-07 09:26 34.66374 140.37885 34913 ft 511 kts 61°
2026-05-07 09:27 34.69961 140.45344 34910 ft 512 kts 61°
2026-05-07 09:28 34.75172 140.56624 34909 ft 512 kts 62°
2026-05-07 09:28 34.78625 140.64174 34903 ft 513 kts 62°
2026-05-07 09:29 34.82095 140.71751 34900 ft 515 kts 63°
2026-05-07 09:29 34.85585 140.79378 34900 ft 516 kts 63°
2026-05-07 09:30 34.89051 140.86972 34901 ft 517 kts 63°
2026-05-07 09:30 34.92549 140.94646 34897 ft 518 kts 63°
2026-05-07 09:31 34.96012 141.02267 34899 ft 518 kts 63°
2026-05-07 09:31 34.99504 141.09969 34896 ft 518 kts 63°
2026-05-07 09:32 35.02972 141.17631 34900 ft 518 kts 63°
2026-05-07 09:32 35.06441 141.25317 34901 ft 520 kts 62°
2026-05-07 09:33 35.09901 141.32994 34899 ft 519 kts 62°
2026-05-07 09:33 35.13385 141.40744 34902 ft 519 kts 62°
2026-05-07 09:34 35.16846 141.48460 34902 ft 521 kts 62°
2026-05-07 09:34 35.20317 141.56212 34911 ft 521 kts 62°
2026-05-07 09:35 35.23772 141.63956 34910 ft 522 kts 62°
2026-05-07 09:35 35.27239 141.71738 34913 ft 522 kts 63°
2026-05-07 09:36 35.30701 141.79532 34920 ft 521 kts 63°
2026-05-07 09:36 35.34163 141.87334 34925 ft 522 kts 62°
2026-05-07 09:37 35.37624 141.95157 34922 ft 522 kts 63°
2026-05-07 09:37 35.41066 142.02960 34924 ft 522 kts 62°
2026-05-07 09:38 35.44494 142.10742 34930 ft 522 kts 63°
2026-05-07 09:38 35.47962 142.18634 34928 ft 523 kts 62°
2026-05-07 09:39 35.51388 142.26453 34931 ft 522 kts 63°
2026-05-07 09:39 35.54819 142.34300 34937 ft 523 kts 62°
2026-05-07 09:40 35.58240 142.42142 34932 ft 523 kts 62°
2026-05-07 09:40 35.61663 142.50009 34932 ft 522 kts 62°
2026-05-07 09:41 35.65085 142.57884 34932 ft 522 kts 62°
2026-05-07 09:41 35.68497 142.65765 34931 ft 523 kts 62°
2026-05-07 09:42 35.71911 142.73663 34931 ft 522 kts 63°
2026-05-07 09:42 35.75289 142.81500 34933 ft 522 kts 62°
2026-05-07 09:43 35.78692 142.89410 34936 ft 522 kts 63°
2026-05-07 09:43 35.82069 142.97284 34938 ft 522 kts 62°
2026-05-07 09:44 35.85440 143.05158 34938 ft 523 kts 62°
2026-05-07 09:44 35.88805 143.13129 34936 ft 524 kts 65°
2026-05-07 09:45 35.91584 143.21359 34938 ft 524 kts 72°
2026-05-07 09:45 35.93543 143.30013 34939 ft 522 kts 80°
2026-05-07 09:46 35.94672 143.38829 34943 ft 522 kts 85°
2026-05-07 09:46 35.95535 143.47627 34944 ft 521 kts 85°
2026-05-07 09:47 35.96434 143.56480 34948 ft 521 kts 84°
2026-05-07 09:47 35.97333 143.65338 34950 ft 521 kts 85°
2026-05-07 09:48 35.98229 143.74225 34947 ft 521 kts 85°
2026-05-07 09:48 35.99114 143.83083 34948 ft 522 kts 85°
2026-05-07 09:49 35.99993 143.91951 34949 ft 522 kts 85°
2026-05-07 09:49 36.01071 144.00755 34951 ft 523 kts 77°
2026-05-07 09:50 36.03467 144.09196 34957 ft 526 kts 63°
2026-05-07 09:50 36.07310 144.16820 34962 ft 524 kts 50°
2026-05-07 09:51 36.12203 144.23465 34966 ft 522 kts 43°
2026-05-07 09:51 36.17231 144.29895 34973 ft 521 kts 43°
2026-05-07 09:52 36.22244 144.36381 34975 ft 521 kts 44°
2026-05-07 09:52 36.27230 144.42896 34973 ft 521 kts 43°
2026-05-07 09:53 36.32194 144.49409 34972 ft 522 kts 43°
2026-05-07 09:53 36.37158 144.55945 34971 ft 523 kts 43°
2026-05-07 09:54 36.42148 144.62527 34971 ft 523 kts 43°
2026-05-07 09:54 36.47111 144.69086 34970 ft 523 kts 44°
2026-05-07 09:55 36.52091 144.75681 34974 ft 523 kts 44°
2026-05-07 09:55 36.57043 144.82253 34973 ft 525 kts 44°
2026-05-07 09:56 36.62027 144.88882 34972 ft 524 kts 44°
2026-05-07 09:56 36.66974 144.95471 34975 ft 524 kts 44°
2026-05-07 09:57 36.71953 145.02118 34977 ft 524 kts 44°
2026-05-07 09:57 36.76932 145.08777 34980 ft 524 kts 44°
2026-05-07 09:58 36.81876 145.15404 34981 ft 526 kts 44°
2026-05-07 09:58 36.86865 145.22110 34981 ft 527 kts 44°
2026-05-07 09:59 36.91812 145.28767 34983 ft 526 kts 44°
2026-05-07 09:59 36.96798 145.35492 34984 ft 527 kts 44°
2026-05-07 10:00 37.01762 145.42204 34989 ft 528 kts 44°
2026-05-07 10:00 37.06742 145.48949 34989 ft 527 kts 43°
2026-05-07 10:01 37.11672 145.55643 34989 ft 527 kts 44°
2026-05-07 10:01 37.16638 145.62411 34986 ft 527 kts 45°
2026-05-07 10:02 37.21168 145.69553 34983 ft 529 kts 53°
2026-05-07 10:02 37.25167 145.77324 34988 ft 530 kts 56°
2026-05-07 10:03 37.29029 145.85159 34990 ft 529 kts 57°
2026-05-07 10:03 37.32903 145.92989 34992 ft 528 kts 56°
2026-05-07 10:04 37.36765 146.00783 34992 ft 527 kts 57°
2026-05-07 10:04 37.40610 146.08557 34990 ft 526 kts 56°
2026-05-07 10:05 37.44466 146.16357 34991 ft 525 kts 56°
2026-05-07 10:05 37.48306 146.24150 34989 ft 526 kts 56°
2026-05-07 10:06 37.52125 146.31920 34992 ft 524 kts 56°
2026-05-07 10:06 37.55970 146.39752 34990 ft 524 kts 56°
2026-05-07 10:07 37.59781 146.47542 34991 ft 524 kts 57°
2026-05-07 10:07 37.63577 146.55315 34992 ft 523 kts 56°
2026-05-07 10:08 37.67369 146.63098 34985 ft 523 kts 56°
2026-05-07 10:08 37.71170 146.70912 34985 ft 524 kts 57°
2026-05-07 10:09 37.74980 146.78772 34992 ft 525 kts 57°
2026-05-07 10:09 37.78761 146.86597 34990 ft 524 kts 57°
2026-05-07 10:10 37.82531 146.94409 34993 ft 523 kts 57°
2026-05-07 10:10 37.86319 147.02269 34997 ft 522 kts 57°
2026-05-07 10:11 37.90053 147.10053 34997 ft 521 kts 57°
2026-05-07 10:11 37.93826 147.17928 34998 ft 522 kts 57°
2026-05-07 10:12 37.97562 147.25742 34999 ft 522 kts 57°
2026-05-07 10:12 38.01298 147.33575 35001 ft 522 kts 57°
2026-05-07 10:13 38.05052 147.41472 35002 ft 522 kts 57°
2026-05-07 10:13 38.08762 147.49297 35005 ft 521 kts 57°
2026-05-07 10:14 38.12509 147.57208 35002 ft 521 kts 57°
2026-05-07 10:14 38.16230 147.65091 35005 ft 523 kts 57°
2026-05-07 10:15 38.19929 147.72943 35008 ft 522 kts 57°
2026-05-07 10:15 38.23661 147.80885 35013 ft 522 kts 57°
2026-05-07 10:16 38.27352 147.88759 35010 ft 522 kts 57°
2026-05-07 10:16 38.31065 147.96698 35013 ft 522 kts 57°
2026-05-07 10:17 38.34747 148.04593 35018 ft 522 kts 57°
2026-05-07 10:17 38.38448 148.12549 35021 ft 522 kts 57°
2026-05-07 10:18 38.42117 148.20454 35023 ft 522 kts 57°
2026-05-07 10:18 38.45806 148.28420 35027 ft 522 kts 57°
2026-05-07 10:19 38.49462 148.36340 35024 ft 522 kts 57°
2026-05-07 10:19 38.53144 148.44330 35026 ft 522 kts 57°
2026-05-07 10:20 38.56814 148.52324 35026 ft 521 kts 57°
2026-05-07 10:20 38.60469 148.60292 35030 ft 521 kts 57°
2026-05-07 10:21 38.64104 148.68236 35027 ft 521 kts 58°
2026-05-07 10:21 38.67751 148.76236 35026 ft 521 kts 57°
2026-05-07 10:22 38.71378 148.84212 35026 ft 522 kts 57°
2026-05-07 10:22 38.75034 148.92268 35030 ft 522 kts 57°
2026-05-07 10:23 38.78661 149.00273 35029 ft 523 kts 57°
2026-05-07 10:23 38.82303 149.08344 35027 ft 523 kts 57°
2026-05-07 10:24 38.85902 149.16334 35030 ft 521 kts 57°
2026-05-07 10:24 38.89526 149.24399 35033 ft 522 kts 57°
2026-05-07 10:25 38.93134 149.32451 35037 ft 521 kts 57°
2026-05-07 10:25 38.96715 149.40465 35037 ft 521 kts 57°
2026-05-07 10:26 39.00323 149.48553 35035 ft 522 kts 57°
2026-05-07 10:26 39.03910 149.56622 35035 ft 522 kts 57°
2026-05-07 10:27 39.07514 149.64743 35042 ft 523 kts 57°
2026-05-07 10:27 39.11098 149.72852 35041 ft 524 kts 57°
2026-05-07 10:28 39.14818 149.80844 35046 ft 521 kts 53°
2026-05-07 10:28 39.19167 149.88278 35045 ft 517 kts 45°
2026-05-07 10:29 39.23846 149.95222 35046 ft 516 kts 44°
2026-05-07 10:29 39.28585 150.02203 35046 ft 516 kts 44°
2026-05-07 10:30 39.35614 150.12654 35045 ft 517 kts 44°
2026-05-07 10:30 39.40308 150.19664 35046 ft 518 kts 44°
2026-05-07 10:31 39.45016 150.26720 35043 ft 518 kts 44°
2026-05-07 10:31 39.49704 150.33765 35043 ft 518 kts 44°
2026-05-07 10:32 39.54396 150.40828 35044 ft 518 kts 44°
2026-05-07 10:32 39.59072 150.47878 35047 ft 518 kts 44°
2026-05-07 10:33 39.63748 150.54953 35046 ft 518 kts 44°
2026-05-07 10:33 39.68449 150.62079 35045 ft 520 kts 44°
2026-05-07 10:34 39.73118 150.69171 35046 ft 520 kts 44°
2026-05-07 10:34 39.77815 150.76326 35051 ft 520 kts 44°
2026-05-07 10:35 39.82484 150.83449 35051 ft 520 kts 44°
2026-05-07 10:35 39.87145 150.90579 35053 ft 521 kts 44°
2026-05-07 10:36 39.91818 150.97743 35056 ft 520 kts 44°
2026-05-07 10:36 39.96476 151.04901 35058 ft 521 kts 44°
2026-05-07 10:37 40.01176 151.12141 35061 ft 521 kts 44°
2026-05-07 10:37 40.05821 151.19312 35056 ft 521 kts 44°
2026-05-07 10:38 40.10508 151.26569 35058 ft 521 kts 44°
2026-05-07 10:38 40.15141 151.33752 35054 ft 522 kts 44°
2026-05-07 10:39 40.19810 151.41008 35056 ft 523 kts 44°
2026-05-07 10:39 40.24481 151.48292 35048 ft 523 kts 44°
2026-05-07 10:40 40.29141 151.55577 35048 ft 523 kts 44°
2026-05-07 10:40 40.33798 151.62866 35048 ft 523 kts 44°
2026-05-07 10:41 40.38448 151.70165 35039 ft 524 kts 44°
2026-05-07 10:41 40.43087 151.77466 35043 ft 524 kts 44°
2026-05-07 10:42 40.47735 151.84796 35046 ft 524 kts 44°
2026-05-07 10:42 40.52397 151.92166 35042 ft 524 kts 44°
2026-05-07 10:43 40.57012 151.99481 35039 ft 523 kts 44°
2026-05-07 10:43 40.61633 152.06816 35039 ft 523 kts 44°
2026-05-07 10:44 40.66270 152.14200 35036 ft 524 kts 44°
2026-05-07 10:44 40.70906 152.21596 35034 ft 525 kts 44°
2026-05-07 10:45 40.75528 152.28992 35037 ft 525 kts 44°
2026-05-07 10:45 40.80156 152.36415 35042 ft 524 kts 44°
2026-05-07 10:46 40.84786 152.43858 35036 ft 524 kts 44°
2026-05-07 10:46 40.89382 152.51262 35044 ft 525 kts 44°
2026-05-07 10:47 40.94009 152.58736 35046 ft 525 kts 44°
2026-05-07 10:47 40.98605 152.66182 35047 ft 524 kts 44°
2026-05-07 10:48 41.03195 152.73622 35051 ft 526 kts 45°
2026-05-07 10:48 41.07795 152.81116 35053 ft 526 kts 44°
2026-05-07 10:49 41.12402 152.88632 35049 ft 525 kts 44°
2026-05-07 10:49 41.16989 152.96133 35053 ft 524 kts 44°
2026-05-07 10:50 41.21560 153.03622 35052 ft 525 kts 44°
2026-05-07 10:50 41.26129 153.11130 35049 ft 525 kts 44°
2026-05-07 10:51 41.30701 153.18663 35046 ft 526 kts 44°
2026-05-07 10:51 41.35302 153.26263 35047 ft 525 kts 44°
2026-05-07 10:52 41.39861 153.33813 35045 ft 525 kts 44°
2026-05-07 10:52 41.44415 153.41374 35042 ft 524 kts 44°
2026-05-07 10:53 41.48937 153.48897 35041 ft 523 kts 44°
2026-05-07 10:53 41.53473 153.56462 35039 ft 524 kts 44°
2026-05-07 10:54 41.58006 153.64040 35034 ft 524 kts 44°
2026-05-07 10:54 41.62532 153.71631 35040 ft 524 kts 44°
2026-05-07 10:55 41.67067 153.79254 35037 ft 522 kts 45°
2026-05-07 10:55 41.71559 153.86821 35033 ft 524 kts 44°
2026-05-07 10:56 41.76089 153.94472 35031 ft 524 kts 44°
2026-05-07 10:56 41.80611 154.02129 35027 ft 524 kts 44°
2026-05-07 10:57 41.85106 154.09761 35023 ft 524 kts 44°
2026-05-07 10:57 41.89600 154.17406 35029 ft 525 kts 44°
2026-05-07 10:58 41.94091 154.25075 35032 ft 523 kts 44°
2026-05-07 10:58 41.98582 154.32756 35035 ft 523 kts 44°
2026-05-07 10:59 42.03069 154.40449 35032 ft 523 kts 44°
2026-05-07 10:59 42.07536 154.48128 35040 ft 523 kts 44°
2026-05-07 11:00 42.11999 154.55824 35047 ft 522 kts 44°
2026-05-07 11:00 42.16448 154.63512 35039 ft 522 kts 44°
2026-05-07 11:01 42.20876 154.71178 35029 ft 523 kts 45°
2026-05-07 11:01 42.25340 154.78937 35027 ft 523 kts 44°
2026-05-07 11:02 42.29757 154.86630 35036 ft 522 kts 44°
2026-05-07 11:02 42.34201 154.94388 35028 ft 522 kts 44°
2026-05-07 11:03 42.38643 155.02162 35028 ft 523 kts 44°
2026-05-07 11:03 42.43068 155.09929 35027 ft 523 kts 44°
2026-05-07 11:04 42.47483 155.17699 35022 ft 522 kts 44°
2026-05-07 11:04 42.51874 155.25442 35022 ft 523 kts 44°
2026-05-07 11:05 42.56305 155.33283 35018 ft 524 kts 44°
2026-05-07 11:05 42.60701 155.41086 35023 ft 522 kts 44°
2026-05-07 11:06 42.65107 155.48915 35015 ft 522 kts 44°
2026-05-07 11:06 42.69478 155.56708 35016 ft 522 kts 44°
2026-05-07 11:07 42.73885 155.64581 35013 ft 523 kts 44°
2026-05-07 11:07 42.78266 155.72429 35010 ft 524 kts 45°
2026-05-07 11:08 42.82653 155.80315 35021 ft 523 kts 44°
2026-05-07 11:08 42.87030 155.88199 35011 ft 524 kts 45°
2026-05-07 11:09 42.91403 155.96091 35016 ft 525 kts 45°
2026-05-07 11:09 42.95777 156.04021 35021 ft 523 kts 45°
2026-05-07 11:10 43.00132 156.11929 35023 ft 524 kts 44°
2026-05-07 11:10 43.04482 156.19846 35029 ft 524 kts 45°
2026-05-07 11:11 43.08849 156.27821 35022 ft 522 kts 45°
2026-05-07 11:11 43.13179 156.35750 35017 ft 523 kts 45°
2026-05-07 11:12 43.17519 156.43707 35013 ft 524 kts 45°
2026-05-07 11:12 43.21872 156.51724 35019 ft 525 kts 45°
2026-05-07 11:13 43.26197 156.59709 35017 ft 523 kts 45°
2026-05-07 11:13 43.30518 156.67705 35015 ft 524 kts 46°
2026-05-07 11:14 43.34845 156.75731 35014 ft 526 kts 46°
2026-05-07 11:14 43.39178 156.83795 35015 ft 527 kts 46°
2026-05-07 11:15 43.43532 156.91927 35015 ft 525 kts 46°
2026-05-07 11:15 43.47837 156.99976 35017 ft 527 kts 46°
2026-05-07 11:16 43.52177 157.08115 35012 ft 528 kts 46°
2026-05-07 11:16 43.56482 157.16222 35004 ft 527 kts 46°
2026-05-07 11:17 43.60789 157.24361 35004 ft 524 kts 46°
2026-05-07 11:17 43.65055 157.32426 35006 ft 524 kts 46°
2026-05-07 11:18 43.69320 157.40512 34995 ft 523 kts 46°
2026-05-07 11:18 43.73609 157.48657 34995 ft 524 kts 46°
2026-05-07 11:19 43.77865 157.56772 34989 ft 523 kts 46°
2026-05-07 11:19 43.82113 157.64900 34985 ft 524 kts 46°
2026-05-07 11:20 43.86361 157.73044 34981 ft 523 kts 46°
2026-05-07 11:20 43.90587 157.81177 34987 ft 523 kts 46°
2026-05-07 11:21 43.94833 157.89377 34979 ft 522 kts 46°
2026-05-07 11:21 43.99059 157.97548 34994 ft 523 kts 46°
2026-05-07 11:22 44.03280 158.05731 34996 ft 523 kts 46°
2026-05-07 11:22 44.07511 158.13966 35002 ft 525 kts 46°
2026-05-07 11:23 44.11713 158.22172 34999 ft 523 kts 46°
2026-05-07 11:23 44.15922 158.30409 35002 ft 522 kts 46°
2026-05-07 11:24 44.20113 158.38621 34996 ft 523 kts 46°
2026-05-07 11:24 44.24275 158.46819 34987 ft 520 kts 46°
2026-05-07 11:25 44.28457 158.55066 34993 ft 521 kts 46°
2026-05-07 11:25 44.32610 158.63283 34992 ft 522 kts 46°
2026-05-07 11:26 44.36786 158.71574 34976 ft 521 kts 46°
2026-05-07 11:26 44.40926 158.79808 34983 ft 523 kts 47°
2026-05-07 11:27 44.45102 158.88145 34967 ft 522 kts 47°
2026-05-07 11:27 44.49236 158.96422 34979 ft 522 kts 47°
2026-05-07 11:28 44.53384 159.04747 34975 ft 521 kts 47°
2026-05-07 11:28 44.57521 159.13068 34977 ft 524 kts 47°
2026-05-07 11:29 44.61668 159.21448 34951 ft 522 kts 46°
2026-05-07 11:29 44.65792 159.29793 34952 ft 522 kts 47°
2026-05-07 11:30 44.69897 159.38127 34966 ft 524 kts 47°
2026-05-07 11:30 44.74029 159.46545 34973 ft 522 kts 47°
2026-05-07 11:31 44.78135 159.54932 34979 ft 523 kts 47°
2026-05-07 11:31 44.82235 159.63332 34971 ft 522 kts 46°
2026-05-07 11:32 44.88376 159.75951 34980 ft 521 kts 48°
2026-05-07 11:33 44.92453 159.84358 34971 ft 524 kts 47°
2026-05-07 11:33 44.96543 159.92831 34981 ft 523 kts 48°
2026-05-07 11:34 45.00714 160.01154 34979 ft 520 kts 43°
2026-05-07 11:34 45.05282 160.09000 34978 ft 516 kts 41°
2026-05-07 11:35 45.09895 160.16711 34981 ft 516 kts 41°
2026-05-07 11:35 45.14469 160.24412 34878 ft 514 kts 41°
2026-05-07 11:36 45.19047 160.32153 34951 ft 516 kts 41°
2026-05-07 11:36 45.23643 160.39960 34962 ft 516 kts 41°
2026-05-07 11:37 45.28227 160.47771 34962 ft 516 kts 41°
2026-05-07 11:37 45.32811 160.55614 34962 ft 515 kts 41°
2026-05-07 11:38 45.37348 160.63393 34964 ft 516 kts 41°
2026-05-07 11:38 45.41915 160.71237 34957 ft 516 kts 42°
2026-05-07 11:39 45.46478 160.79103 34955 ft 517 kts 42°
2026-05-07 11:39 45.51040 160.86992 34957 ft 518 kts 42°
2026-05-07 11:40 45.55598 160.94894 34955 ft 517 kts 42°
2026-05-07 11:40 45.60139 161.02782 34960 ft 519 kts 42°
2026-05-07 11:41 45.64683 161.10704 34957 ft 518 kts 42°
2026-05-07 11:41 45.69226 161.18645 34961 ft 517 kts 42°
2026-05-07 11:42 45.73766 161.26605 34960 ft 516 kts 42°
2026-05-07 11:42 45.78278 161.34537 34954 ft 516 kts 42°
2026-05-07 11:43 45.82770 161.42459 34954 ft 516 kts 42°
2026-05-07 11:43 45.87296 161.50459 34952 ft 516 kts 42°
2026-05-07 11:44 45.91804 161.58447 34950 ft 517 kts 42°
2026-05-07 11:44 45.96282 161.66412 34952 ft 515 kts 43°
2026-05-07 11:45 46.00773 161.74416 34957 ft 517 kts 43°
2026-05-07 11:45 46.05279 161.82469 34953 ft 516 kts 43°
2026-05-07 11:46 46.09765 161.90521 34952 ft 518 kts 43°
2026-05-07 11:46 46.14262 161.98613 34957 ft 516 kts 43°
2026-05-07 11:47 46.18700 162.06622 34956 ft 514 kts 43°
2026-05-07 11:47 46.23156 162.14682 34955 ft 512 kts 43°
2026-05-07 11:48 46.27571 162.22691 34946 ft 512 kts 43°
2026-05-07 11:48 46.31982 162.30710 34948 ft 514 kts 43°
2026-05-07 11:49 46.36420 162.38814 34948 ft 512 kts 43°
2026-05-07 11:49 46.40828 162.46883 34948 ft 512 kts 43°
2026-05-07 11:50 46.45205 162.54923 34943 ft 510 kts 42°
2026-05-07 11:50 46.49582 162.62976 34943 ft 510 kts 42°
2026-05-07 11:51 46.53964 162.71056 34937 ft 512 kts 43°
2026-05-07 11:51 46.58363 162.79198 34939 ft 514 kts 43°
2026-05-07 11:52 46.62745 162.87347 34933 ft 513 kts 43°
2026-05-07 11:52 46.67119 162.95487 34932 ft 513 kts 43°
2026-05-07 11:53 46.71492 163.03662 34939 ft 512 kts 43°
2026-05-07 11:53 46.75853 163.11824 34931 ft 513 kts 43°
2026-05-07 11:54 46.80207 163.20006 34925 ft 514 kts 43°
2026-05-07 11:54 46.84580 163.28253 34929 ft 512 kts 43°
2026-05-07 11:55 46.88917 163.36450 34928 ft 514 kts 43°
2026-05-07 11:55 46.93271 163.44702 34924 ft 514 kts 43°
2026-05-07 11:56 46.97604 163.52951 34927 ft 512 kts 43°
2026-05-07 11:56 47.01940 163.61212 34925 ft 514 kts 43°
2026-05-07 11:57 47.06255 163.69467 34923 ft 513 kts 43°
2026-05-07 11:57 47.10569 163.77747 34927 ft 514 kts 44°
2026-05-07 11:58 47.14886 163.86055 34927 ft 515 kts 43°
2026-05-07 11:58 47.19218 163.94415 34928 ft 514 kts 43°
2026-05-07 11:59 47.23513 164.02736 34927 ft 514 kts 43°
2026-05-07 11:59 47.27837 164.11134 34928 ft 514 kts 43°
2026-05-07 12:00 47.32113 164.19466 34931 ft 515 kts 43°
2026-05-07 12:00 47.36409 164.27864 34929 ft 513 kts 43°
2026-05-07 12:01 47.40698 164.36264 34929 ft 516 kts 43°
2026-05-07 12:01 47.45003 164.44725 34929 ft 516 kts 43°
2026-05-07 12:02 47.49297 164.53189 34929 ft 517 kts 43°
2026-05-07 12:02 47.53573 164.61656 34933 ft 516 kts 42°
2026-05-07 12:03 47.57833 164.70110 34939 ft 517 kts 43°
2026-05-07 12:03 47.62136 164.78667 34947 ft 518 kts 43°
2026-05-07 12:04 47.66394 164.87172 34947 ft 517 kts 43°
2026-05-07 12:04 47.70665 164.95723 34947 ft 518 kts 42°
2026-05-07 12:05 47.74948 165.04321 34940 ft 520 kts 43°
2026-05-07 12:05 47.79223 165.12949 34937 ft 518 kts 42°
2026-05-07 12:06 47.83486 165.21567 34934 ft 518 kts 42°
2026-05-07 12:06 47.87721 165.30159 34934 ft 518 kts 42°
2026-05-07 12:07 47.91948 165.38748 34924 ft 518 kts 42°
2026-05-07 12:07 47.96191 165.47415 34917 ft 518 kts 42°
2026-05-07 12:08 48.00412 165.56067 34918 ft 514 kts 41°
2026-05-07 12:08 48.04593 165.64644 34912 ft 517 kts 41°
2026-05-07 12:09 48.08806 165.73326 34912 ft 516 kts 42°
2026-05-07 12:09 48.12990 165.81972 34920 ft 517 kts 42°
2026-05-07 12:10 48.17180 165.90652 34916 ft 517 kts 42°
2026-05-07 12:10 48.21360 165.99361 34925 ft 516 kts 42°
2026-05-07 12:11 48.25547 166.08096 34917 ft 515 kts 42°
2026-05-07 12:11 48.29716 166.16806 34926 ft 520 kts 42°
2026-05-07 12:12 48.33904 166.25601 34915 ft 521 kts 42°
2026-05-07 12:12 48.38109 166.34470 34921 ft 520 kts 43°
2026-05-07 12:13 48.42265 166.43275 34916 ft 517 kts 43°
2026-05-07 12:13 48.46432 166.52090 34909 ft 522 kts 43°
2026-05-07 12:14 48.50629 166.61026 34909 ft 523 kts 43°
2026-05-07 12:14 48.54802 166.69952 34905 ft 521 kts 43°
2026-05-07 12:15 48.58938 166.78807 34900 ft 522 kts 44°
2026-05-07 12:15 48.63119 166.87782 34898 ft 526 kts 44°
2026-05-07 12:16 48.67286 166.96782 34890 ft 525 kts 44°
2026-05-07 12:16 48.71458 167.05809 34880 ft 525 kts 44°
2026-05-07 12:17 48.75610 167.14828 34873 ft 524 kts 44°
2026-05-07 12:17 48.79748 167.23848 34887 ft 523 kts 44°
2026-05-07 12:17 48.81835 167.28397 35020 ft 525 kts 44°
2026-05-07 12:18 48.83910 167.32933 34976 ft 524 kts 44°
2026-05-07 12:18 48.85957 167.37419 34818 ft 524 kts 45°
2026-05-07 12:18 48.88031 167.41972 34948 ft 524 kts 45°
2026-05-07 12:19 48.92143 167.51012 34905 ft 524 kts 45°
2026-05-07 12:19 48.96282 167.60147 34899 ft 524 kts 45°
2026-05-07 12:20 49.00371 167.69214 34905 ft 523 kts 45°
2026-05-07 12:20 49.04466 167.78313 34897 ft 522 kts 46°
2026-05-07 12:21 49.08570 167.87454 34892 ft 525 kts 46°
2026-05-07 12:21 49.12677 167.96649 34892 ft 525 kts 46°
2026-05-07 12:22 49.16743 168.05788 34883 ft 524 kts 46°
2026-05-07 12:22 49.20815 168.14984 34893 ft 522 kts 46°
2026-05-07 12:23 49.24865 168.24126 34885 ft 522 kts 46°
2026-05-07 12:23 49.28904 168.33272 34871 ft 521 kts 47°
2026-05-07 12:24 49.32935 168.42462 34882 ft 521 kts 47°
2026-05-07 12:24 49.36970 168.51665 34876 ft 522 kts 47°
2026-05-07 12:25 49.40969 168.60867 34873 ft 521 kts 47°
2026-05-07 12:25 49.44970 168.70035 34863 ft 522 kts 48°
2026-05-07 12:26 49.48973 168.79279 34870 ft 521 kts 49°
2026-05-07 12:26 49.52965 168.88538 34863 ft 521 kts 49°
2026-05-07 12:27 49.56979 168.97856 34868 ft 521 kts 49°
2026-05-07 12:27 49.60937 169.07123 34861 ft 519 kts 49°
2026-05-07 12:28 49.64903 169.16382 34857 ft 520 kts 49°
2026-05-07 12:28 49.68837 169.25632 34856 ft 519 kts 49°
2026-05-07 12:29 49.72794 169.34950 34863 ft 519 kts 49°
2026-05-07 12:29 49.76718 169.44235 34849 ft 518 kts 49°
2026-05-07 12:30 49.80647 169.53571 34813 ft 517 kts 49°
2026-05-07 12:30 49.84523 169.62811 34842 ft 517 kts 49°
2026-05-07 12:31 49.88432 169.72137 34849 ft 518 kts 50°
2026-05-07 12:31 49.92334 169.81493 34849 ft 518 kts 50°